Estación de Longaví Norte
Ultimos registro cada 15 minutos 47
| N° | Estación | Fecha / Hora | Temperatura | Humedad | Lluvia | Velocidad | Dirección | Radiación | Presion |
| 47 | Longaví Norte | 02-05-2026 11:30 | 9,2 | 88,1 | 0 | 0,3 | 146 | 598,1 | 1000,7 |
| 46 | Longaví Norte | 02-05-2026 11:15 | 7,6 | 94,1 | 0 | 0,7 | 260 | 353,1 | 1000,8 |
| 45 | Longaví Norte | 02-05-2026 11:00 | 6,3 | 99,8 | 0 | 0,3 | 225 | 573,1 | 1000,8 |
| 44 | Longaví Norte | 02-05-2026 10:45 | 4,9 | 100 | 0 | 0,7 | 212 | 261,9 | 1001,1 |
| 43 | Longaví Norte | 02-05-2026 10:30 | 4,9 | 100 | 0 | 0,3 | 248 | 244,4 | 1001,2 |
| 42 | Longaví Norte | 02-05-2026 10:15 | 4,2 | 100 | 0 | 0,3 | 190 | 265,6 | 1001,3 |
| 41 | Longaví Norte | 02-05-2026 10:00 | 3,6 | 100 | 0 | 0,7 | 226 | 228,1 | 1001,4 |
| 40 | Longaví Norte | 02-05-2026 09:45 | 3,5 | 100 | 0 | 0,7 | 194 | 141,9 | 1001,4 |
| 39 | Longaví Norte | 02-05-2026 09:30 | 3,4 | 100 | 0 | 1 | 191 | 144,4 | 1001,7 |
| 38 | Longaví Norte | 02-05-2026 09:15 | 3,3 | 100 | 0 | 0,7 | 194 | 109,4 | 1001,6 |
| 37 | Longaví Norte | 02-05-2026 09:00 | 3,4 | 100 | 0 | 0,7 | 230 | 113,1 | 1001,7 |
| 36 | Longaví Norte | 02-05-2026 08:45 | 3,4 | 100 | 0 | 0,3 | 227 | 48,1 | 1001,6 |
| 35 | Longaví Norte | 02-05-2026 08:30 | 3,1 | 100 | 0 | 0,3 | 225 | 75,6 | 1001,4 |
| 34 | Longaví Norte | 02-05-2026 08:15 | 3,3 | 100 | 0 | 0,3 | 199 | 30,6 | 1001,2 |
| 33 | Longaví Norte | 02-05-2026 08:00 | 3,1 | 100 | 0 | 0 | 220 | 25,6 | 1001,1 |
| 32 | Longaví Norte | 02-05-2026 07:45 | 3,1 | 100 | 0 | 0,3 | 223 | 8,1 | 1001,1 |
| 31 | Longaví Norte | 02-05-2026 07:30 | 3,3 | 100 | 0 | 0,7 | 194 | 1,9 | 1001,1 |
| 30 | Longaví Norte | 02-05-2026 07:15 | 3,4 | 100 | 0 | 0,3 | 183 | 0,6 | 1001,2 |
| 29 | Longaví Norte | 02-05-2026 07:00 | 3,5 | 100 | 0 | 0,3 | 216 | 0,6 | 1001,3 |
| 28 | Longaví Norte | 02-05-2026 06:45 | 3,3 | 100 | 0 | 0,3 | 197 | 0,6 | 1001,2 |
| 27 | Longaví Norte | 02-05-2026 06:30 | 3,1 | 100 | 0 | 0 | 208 | 0,6 | 1001,1 |
| 26 | Longaví Norte | 02-05-2026 06:15 | 2 | 100 | 0 | 0 | 208 | 0,6 | 1001 |
| 25 | Longaví Norte | 02-05-2026 06:00 | 1,2 | 100 | 0 | 0 | 208 | 0,6 | 1000,8 |
| 24 | Longaví Norte | 02-05-2026 05:45 | 0,8 | 100 | 0 | 0 | 208 | 0,6 | 1000,8 |
| 23 | Longaví Norte | 02-05-2026 05:30 | 0,4 | 100 | 0 | 0 | 208 | 0,6 | 1001 |
| 22 | Longaví Norte | 02-05-2026 05:15 | 0,1 | 100 | 0 | 0 | 208 | 0,6 | 1000,9 |
| 21 | Longaví Norte | 02-05-2026 05:00 | 0 | 100 | 0 | 0 | 208 | 0,6 | 1001,2 |
| 20 | Longaví Norte | 02-05-2026 04:45 | -0,7 | 100 | 0 | 0 | 208 | 0,6 | 1001,2 |
| 19 | Longaví Norte | 02-05-2026 04:30 | -0,6 | 100 | 0 | 0 | 208 | 0,6 | 1001,3 |
| 18 | Longaví Norte | 02-05-2026 04:15 | -0,4 | 100 | 0 | 0 | 208 | 0,6 | 1001,5 |
| 17 | Longaví Norte | 02-05-2026 04:00 | -0,8 | 100 | 0 | 0 | 208 | 0,6 | 1001,7 |
| 16 | Longaví Norte | 02-05-2026 03:45 | -1,1 | 100 | 0 | 0 | 208 | 0,6 | 1002 |
| 15 | Longaví Norte | 02-05-2026 03:30 | -0,8 | 99,9 | 0 | 0 | 208 | 0,6 | 1002,1 |
| 14 | Longaví Norte | 02-05-2026 03:15 | -0,6 | 99,9 | 0 | 0 | 208 | 0,6 | 1002,2 |
| 13 | Longaví Norte | 02-05-2026 03:00 | -0,4 | 99,9 | 0 | 0 | 208 | 0,6 | 1002,3 |
| 12 | Longaví Norte | 02-05-2026 02:45 | -0,2 | 99,9 | 0 | 0 | 208 | 0,6 | 1002,6 |
| 11 | Longaví Norte | 02-05-2026 02:30 | 0,2 | 99,8 | 0 | 0 | 208 | 0,6 | 1002,7 |
| 10 | Longaví Norte | 02-05-2026 02:15 | 0,4 | 99,7 | 0 | 0 | 208 | 0,6 | 1002,8 |
| 9 | Longaví Norte | 02-05-2026 02:00 | 0,9 | 99,8 | 0 | 0 | 208 | 0,6 | 1002,8 |
| 8 | Longaví Norte | 02-05-2026 01:45 | 1 | 99,9 | 0 | 0 | 208 | 0,6 | 1002,9 |
| 7 | Longaví Norte | 02-05-2026 01:30 | 1,4 | 99,7 | 0 | 0 | 208 | 0,6 | 1003 |
| 6 | Longaví Norte | 02-05-2026 01:15 | 1,4 | 99,6 | 0 | 0 | 208 | 0,6 | 1003 |
| 5 | Longaví Norte | 02-05-2026 01:00 | 1,7 | 99,2 | 0 | 0 | 208 | 0,6 | 1003,1 |
| 4 | Longaví Norte | 02-05-2026 00:45 | 1,7 | 99,4 | 0 | 0 | 208 | 0,6 | 1003,4 |
| 3 | Longaví Norte | 02-05-2026 00:30 | 2,1 | 99,4 | 0 | 0 | 208 | 0,6 | 1003,4 |
| 2 | Longaví Norte | 02-05-2026 00:15 | 2,2 | 99,3 | 0 | 0 | 208 | 0,6 | 1003,7 |
| 1 | Longaví Norte | 02-05-2026 00:00 | 2,5 | 99,1 | 0 | 0 | 208 | 0,6 | 1003,9 |